View from above orbital plane
|
View from above satellite
|
Ground track
|
The orbit data is extracted from the following two-line orbital elements,
1 19046U 88032B 21110.54852949 -.00000199 00000-0 -10230-4 0 9993
2 19046 97.3908 123.7452 0034930 238.5499 121.2310 15.02907852783086
Epoch (UTC): | 20 April 2021 13:09:52 |
Eccentricity: | 0.0034930 |
inclination: | 97.3908° |
perigee height: | 534 km |
apogee height: | 582 km |
right ascension of ascending node: | 123.7452° |
argument of perigee: | 238.5499° |
revolutions per day: | 15.02907852 |
mean anomaly at epoch: | 121.2310° |
orbit number at epoch: | 78308 |
The dashed part of the orbit path shows where the satellite is in the earth's shadow,
|
|